This is the latest recevied weather packets stored in our database for station/object SM0UQT-10. If no packets are shown the sender has not sent any weather packets the latest 10 day(s).
| Time | Temp. | Humidity | Pressure | Rain* | Wind** | Luminosity | Snow |
|---|---|---|---|---|---|---|---|
| 1777385712 | 23.33° C | 20% | 1025.6 hPa | - | - | - | - |
| 1777385235 | 23.89° C | 21% | 1025.6 hPa | - | - | - | - |
| 1777383984 | 26.11° C | 25% | 1025.6 hPa | - | - | - | - |
| 1777383336 | 26.11° C | 26% | 1025.7 hPa | - | - | - | - |
| 1777382226 | 25.56° C | 25% | 1025.5 hPa | - | - | - | - |
| 1777381685 | 25.56° C | 21% | 1025.4 hPa | - | - | - | - |
| 1777380427 | 26.11° C | 25% | 1025.4 hPa | - | - | - | - |
| 1777378510 | 26.11° C | 26% | 1025.6 hPa | - | - | - | - |
| 1777377693 | 26.11° C | 25% | 1025.6 hPa | - | - | - | - |
| 1777374993 | 27.22° C | 25% | 1025.6 hPa | - | - | - | - |
| 1777373483 | 26.11° C | 26% | 1025.7 hPa | - | - | - | - |
| 1777372208 | 26.11° C | 26% | 1025.6 hPa | - | - | - | - |
| 1777371464 | 26.11° C | 27% | 1025.7 hPa | - | - | - | - |
| 1777371308 | 26.11° C | 27% | 1025.7 hPa | - | - | - | - |
| 1777370484 | 26.11° C | 26% | 1025.8 hPa | - | - | - | - |
| 1777370407 | 26.11° C | 26% | 1025.8 hPa | - | - | - | - |
| 1777369546 | 26.11° C | 26% | 1025.7 hPa | - | - | - | - |
| 1777368699 | 26.11° C | 26% | 1025.7 hPa | - | - | - | - |
| 1777368607 | 26.11° C | 26% | 1025.7 hPa | - | - | - | - |
| 1777367797 | 26.11° C | 27% | 1025.4 hPa | - | - | - | - |
| 1777367707 | 26.11° C | 27% | 1025.4 hPa | - | - | - | - |
| 1777366344 | 26.11° C | 27% | 1025.5 hPa | - | - | - | - |
| 1777365913 | 26.11° C | 27% | 1025.5 hPa | - | - | - | - |
| 1777365159 | 26.11° C | 26% | 1025.5 hPa | - | - | - | - |
| 1777365012 | 26.11° C | 26% | 1025.5 hPa | - | - | - | - |
* Rain since midnight (hover to see other rain measurements)
** Current wind speed in m/s (hover to see current wind gust speed)